Probability
0 0 0 0 0 0 0 0 0 0 0 3 10 29 32 32 48 52 58 58 61 71 71 74 71 71 71 68 68 68 68 68 65 55 52 52 45 45 42 39 32 35 32 26
0 0 0 0 0 0 0 0 0 0 0 6 19 26 32 39 45 55 55 65 65 68 74 71 71 71 68 65 65 65 68 68 58 55 52 45 45 42 42 42 32 29 26 26
0 0 0 0 0 0 0 0 0 0 3 13 26 32 35 45 52 61 61 68 61 61 71 74 71 71 68 65 61 61 61 61 61 48 42 42 42 42 42 39 32 32 29 29
0 0 0 0 0 0 0 0 0 3 3 13 16 32 35 42 55 65 65 61 61 61 68 68 71 71 65 65 61 61 58 61 58 45 39 39 39 42 35 39 32 32 26 23
0 0 0 0 0 0 0 0 0 0 6 16 23 26 35 48 52 61 65 65 65 61 61 65 71 71 65 61 61 61 58 58 55 45 39 39 39 39 32 35 29 23 23 19
0 0 0 0 0 0 0 0 0 0 16 23 26 23 29 45 58 61 65 68 61 65 61 68 71 71 68 61 61 58 55 58 52 48 39 39 39 32 29 29 23 23 19 13
0 0 0 0 3 6 0 0 16 16 19 32 35 39 42 48 61 65 68 71 71 71 68 71 68 68 65 65 61 61 52 55 48 42 39 35 35 32 32 23 19 16 10 10
0 0 0 3 3 6 10 19 26 26 26 29 32 52 61 61 61 61 61 65 65 68 68 65 68 68 58 58 58 52 52 48 48 42 32 29 29 32 26 19 19 10 10 6
0 3 6 3 16 19 19 23 26 26 35 45 39 52 61 61 65 55 65 71 65 61 61 61 61 55 58 58 55 55 48 45 45 39 29 29 26 26 26 23 13 6 6 6
3 3 6 16 23 26 29 32 42 42 48 39 45 52 61 61 61 58 52 58 61 58 58 61 61 61 58 48 48 48 45 39 42 35 32 29 23 16 16 13 13 6 6 6
6 3 10 26 26 29 32 42 42 48 45 45 48 52 61 58 55 52 55 58 55 65 55 55 58 55 55 42 48 42 39 39 39 26 23 16 16 10 10 10 6 3 3 3
3 26 16 26 32 35 35 39 45 45 45 48 45 48 52 61 45 45 45 45 52 48 52 55 48 48 42 42 42 42 39 26 26 26 29 16 6 3 0 0 0 0 0 0
23 26 29 32 35 32 32 35 45 52 52 48 48 55 55 52 45 42 42 42 48 45 52 52 48 39 35 32 39 39 35 29 29 26 19 19 10 3 3 0 0 0 0 0
23 26 29 29 32 35 32 32 35 45 48 45 52 42 42 39 39 39 42 39 39 48 52 48 42 35 32 29 29 32 23 23 19 19 16 13 6 0 0 0 0 0 0 0
23 29 32 32 32 32 32 29 32 39 39 39 45 42 39 39 39 39 35 39 42 45 45 35 39 32 29 29 26 29 23 19 16 10 13 10 6 3 3 3 0 0 0 0
26 26 23 29 29 29 29 26 26 35 35 35 42 35 35 32 32 29 39 32 42 35 29 26 26 26 23 23 23 19 13 6 6 3 3 3 10 6 6 6 3 0 0 0
23 23 23 23 29 23 23 23 23 29 29 32 35 35 26 23 26 23 29 26 29 29 32 26 23 23 19 16 16 16 10 0 0 3 3 3 3 6 6 6 0 0 0 0
23 23 23 23 23 19 16 16 16 23 26 26 29 32 29 26 26 23 19 29 29 29 23 26 19 23 23 16 19 16 6 3 3 3 3 3 3 6 6 3 3 0 0 0
23 19 19 19 19 16 19 13 16 19 23 26 23 26 23 26 23 19 23 19 23 19 19 23 10 16 16 6 3 6 3 3 3 3 3 3 3 3 0 0 0 0 0 0
16 19 19 16 13 13 16 13 19 23 26 26 19 16 13 13 16 16 19 13 13 16 13 16 13 13 6 6 3 3 3 3 3 3 3 3 3 3 0 0 0 0 0 0
19 19 16 19 16 13 13 16 19 16 23 16 16 16 10 16 16 19 13 13 10 6 6 0 3 6 6 3 3 6 6 3 3 3 3 3 3 3 3 0 0 0 0 0
16 16 13 10 13 13 16 16 26 19 16 13 10 3 10 16 16 16 13 13 6 3 3 6 3 0 0 0 3 0 3 3 3 3 3 3 3 3 3 3 3 3 0 0
16 13 10 10 13 16 23 19 13 16 10 10 10 10 6 10 6 3 6 6 6 0 3 3 0 0 0 0 0 0 0 3 3 3 3 3 3 3 3 3 3 3 3 0
10 16 13 13 16 26 26 23 16 19 16 16 13 10 10 6 3 0 6 3 3 0 3 0 0 0 0 3 0 0 0 0 3 3 3 3 3 3 3 3 3 3 3 3
16 19 19 19 19 16 16 16 13 19 13 10 6 6 6 6 3 0 6 6 0 0 0 0 0 0 0 0 0 0 0 0 0 3 3 3 3 3 3 3 3 3 0 0
19 13 13 16 13 16 16 19 16 13 10 6 0 3 3 0 0 0 6 6 3 0 3 0 0 0 0 0 0 0 0 0 0 0 0 3 3 3 3 3 3 3 3 0
10 6 10 10 10 16 16 16 16 3 0 0 0 0 0 0 0 0 0 3 3 3 3 3 0 0 0 0 0 0 0 0 0 0 0 0 3 3 3 3 3 0 0 0
Height
5863 5867 5871 5874 5878 5882 5885 5889 5893 5896 5899 5901 5902 5904 5906 5907 5908 5909 5910 5911 5911 5911 5911 5911 5910 5909 5908 5907 5905 5904 5903 5902 5901 5899 5898 5896 5895 5893 5892 5890 5888 5886 5884 5882
5855 5859 5863 5867 5871 5874 5878 5882 5886 5889 5892 5894 5896 5898 5900 5901 5903 5904 5905 5906 5907 5907 5907 5907 5906 5906 5904 5903 5902 5900 5899 5898 5897 5896 5895 5894 5892 5891 5889 5887 5886 5884 5882 5880
5848 5852 5855 5859 5864 5867 5871 5875 5878 5881 5885 5887 5889 5891 5894 5896 5897 5899 5900 5901 5902 5902 5902 5902 5902 5901 5900 5899 5897 5896 5895 5894 5893 5892 5892 5891 5889 5888 5886 5884 5883 5881 5879 5877
5841 5844 5847 5854 5856 5860 5863 5867 5870 5873 5877 5880 5883 5885 5887 5889 5891 5892 5894 5895 5896 5897 5897 5897 5897 5896 5895 5894 5893 5891 5889 5889 5889 5888 5888 5887 5886 5885 5883 5881 5879 5877 5875 5873
5832 5835 5840 5844 5848 5852 5855 5858 5862 5865 5869 5872 5875 5878 5880 5882 5884 5886 5888 5889 5891 5891 5892 5892 5892 5891 5890 5889 5888 5887 5885 5884 5885 5884 5884 5883 5882 5881 5879 5878 5876 5873 5871 5869
5824 5828 5832 5836 5840 5843 5848 5850 5854 5857 5861 5865 5868 5871 5873 5875 5877 5879 5881 5882 5884 5885 5886 5886 5887 5886 5885 5885 5884 5883 5882 5881 5880 5880 5879 5878 5878 5877 5875 5874 5871 5869 5867 5865
5815 5820 5824 5828 5831 5835 5840 5843 5846 5849 5853 5856 5859 5863 5865 5867 5869 5871 5873 5876 5877 5879 5880 5880 5881 5881 5880 5880 5879 5878 5877 5876 5875 5875 5874 5873 5873 5872 5870 5869 5867 5865 5863 5861
5807 5812 5818 5819 5823 5827 5831 5834 5838 5841 5844 5847 5850 5853 5856 5859 5861 5864 5866 5868 5870 5872 5873 5874 5875 5875 5875 5874 5873 5873 5872 5871 5870 5870 5869 5869 5868 5867 5866 5864 5862 5861 5859 5857
5800 5805 5808 5811 5815 5818 5822 5826 5829 5832 5836 5839 5842 5845 5848 5851 5853 5856 5858 5860 5862 5864 5866 5867 5868 5868 5868 5868 5867 5867 5866 5866 5865 5865 5864 5863 5863 5862 5861 5859 5858 5856 5854 5852
5791 5795 5799 5803 5806 5810 5813 5817 5820 5824 5827 5830 5833 5836 5839 5842 5845 5847 5850 5852 5854 5856 5858 5859 5860 5861 5861 5861 5861 5861 5860 5860 5859 5859 5858 5858 5857 5856 5855 5854 5852 5851 5848 5846
5782 5787 5790 5794 5797 5801 5805 5808 5811 5815 5818 5821 5824 5827 5830 5833 5836 5839 5841 5844 5846 5848 5849 5851 5851 5852 5853 5854 5854 5853 5852 5852 5852 5852 5852 5852 5851 5850 5850 5848 5847 5845 5843 5840
5774 5778 5782 5786 5789 5793 5796 5799 5802 5806 5809 5812 5815 5818 5821 5824 5827 5830 5832 5834 5836 5839 5840 5842 5843 5844 5845 5845 5846 5845 5845 5846 5846 5845 5845 5845 5844 5844 5843 5842 5840 5838 5837 5835
5766 5769 5773 5777 5780 5784 5787 5790 5793 5796 5799 5803 5806 5809 5812 5815 5818 5821 5823 5825 5828 5830 5832 5833 5833 5835 5836 5837 5837 5838 5838 5839 5839 5839 5839 5838 5838 5837 5836 5835 5833 5832 5830 5828
5757 5761 5764 5768 5771 5775 5778 5781 5784 5787 5790 5794 5797 5800 5803 5806 5809 5812 5814 5817 5819 5821 5822 5823 5824 5826 5827 5828 5829 5830 5831 5832 5832 5832 5832 5831 5831 5830 5829 5828 5827 5825 5823 5821
5749 5752 5756 5759 5762 5766 5769 5772 5775 5778 5782 5785 5788 5792 5795 5798 5801 5803 5805 5808 5810 5812 5813 5814 5815 5817 5818 5820 5821 5823 5824 5824 5825 5825 5825 5824 5824 5823 5822 5821 5820 5818 5816 5814
5739 5743 5746 5749 5753 5756 5759 5763 5766 5769 5773 5776 5780 5783 5786 5789 5793 5795 5797 5799 5801 5803 5805 5807 5808 5809 5810 5812 5814 5815 5816 5816 5817 5817 5817 5817 5817 5816 5815 5813 5812 5811 5809 5807
5731 5734 5738 5741 5743 5746 5749 5753 5756 5760 5764 5768 5772 5775 5778 5781 5784 5786 5789 5791 5793 5795 5797 5799 5801 5802 5804 5806 5807 5808 5808 5809 5809 5810 5810 5810 5810 5809 5808 5806 5805 5804 5802 5800
5723 5726 5729 5732 5734 5737 5740 5743 5747 5751 5755 5759 5763 5766 5769 5773 5776 5778 5781 5784 5787 5789 5790 5792 5794 5796 5798 5799 5800 5801 5802 5802 5803 5803 5803 5803 5802 5801 5800 5799 5798 5796 5794 5793
5715 5718 5721 5724 5726 5729 5731 5735 5739 5743 5747 5750 5754 5757 5761 5764 5767 5770 5773 5776 5778 5781 5783 5786 5788 5790 5791 5793 5794 5794 5795 5796 5796 5796 5796 5795 5795 5794 5793 5792 5790 5789 5787 5785
5707 5711 5714 5716 5719 5722 5725 5728 5732 5735 5739 5742 5745 5748 5752 5755 5758 5762 5765 5768 5771 5774 5777 5779 5781 5783 5784 5785 5787 5787 5788 5788 5788 5788 5788 5788 5787 5786 5785 5784 5783 5781 5780 5778
5701 5704 5707 5710 5713 5716 5719 5722 5725 5728 5731 5734 5737 5740 5744 5747 5750 5754 5757 5761 5764 5767 5769 5772 5773 5775 5777 5779 5780 5780 5780 5781 5781 5781 5781 5780 5780 5779 5777 5776 5775 5774 5772 5770
5694 5698 5701 5704 5707 5710 5713 5715 5718 5722 5725 5727 5730 5732 5735 5739 5743 5746 5750 5753 5757 5760 5762 5764 5767 5769 5770 5771 5772 5773 5773 5774 5774 5774 5773 5772 5772 5771 5770 5769 5768 5766 5765 5763
5689 5691 5694 5698 5701 5704 5706 5709 5712 5715 5718 5720 5722 5724 5728 5732 5735 5739 5743 5746 5749 5752 5755 5757 5759 5761 5762 5764 5764 5765 5766 5766 5766 5766 5765 5765 5764 5763 5762 5761 5760 5758 5757 5755
5684 5686 5689 5692 5695 5698 5701 5703 5706 5709 5711 5713 5716 5718 5722 5725 5728 5732 5735 5739 5742 5745 5748 5750 5752 5753 5755 5756 5757 5757 5758 5758 5758 5758 5758 5757 5757 5756 5755 5754 5752 5751 5749 5748
5680 5682 5684 5687 5690 5693 5695 5698 5701 5703 5705 5708 5711 5713 5716 5720 5723 5726 5730 5733 5736 5738 5741 5743 5744 5745 5747 5748 5749 5750 5750 5751 5751 5751 5750 5750 5749 5748 5747 5746 5745 5744 5742 5740
5676 5678 5680 5683 5685 5688 5691 5693 5696 5699 5701 5704 5706 5709 5712 5714 5717 5721 5724 5727 5729 5732 5734 5735 5737 5738 5739 5741 5742 5742 5743 5743 5743 5743 5743 5742 5742 5741 5740 5739 5737 5736 5735 5733
5672 5674 5676 5678 5681 5684 5686 5689 5691 5694 5696 5699 5701 5704 5706 5709 5712 5715 5718 5720 5722 5725 5727 5728 5730 5731 5733 5734 5734 5735 5735 5735 5736 5736 5735 5735 5734 5733 5732 5731 5730 5729 5727 5725
Wind_Speed
34 33 32 32 32 31 30 29 28 26 24 23 23 22 20 19 19 18 17 17 17 17 16 15 14 14 14 15 15 15 15 14 14 13 13 13 12 12 12 13 14 15 14 14
35 34 33 33 32 32 31 30 30 28 26 25 25 23 22 21 20 19 18 19 19 18 17 16 16 16 16 16 16 16 16 15 14 14 14 13 13 13 14 15 15 16 16 16
35 35 35 35 34 33 32 32 31 30 28 26 26 25 23 22 22 21 20 19 19 19 19 18 18 18 18 18 17 17 16 16 15 15 14 15 15 15 15 16 16 17 19 18
35 36 37 35 34 34 33 33 33 32 30 28 27 26 24 24 24 23 22 22 21 21 21 20 19 19 19 19 18 18 17 15 15 15 15 15 16 16 16 17 18 19 20 20
36 35 35 36 35 34 34 33 33 32 31 29 28 27 26 26 26 25 24 23 23 22 21 21 20 19 19 19 19 18 16 15 16 16 16 16 17 17 17 18 19 19 20 20
36 35 33 36 35 34 34 34 33 33 32 31 30 29 28 27 27 26 26 25 24 24 23 22 21 20 20 20 19 19 17 17 17 17 17 18 19 19 19 19 19 19 20 20
36 35 33 35 34 33 34 35 33 32 32 32 32 31 30 28 28 27 27 27 26 25 24 23 22 21 21 20 20 20 20 19 19 18 18 18 19 19 19 19 18 18 19 20
36 35 34 36 34 34 34 34 34 33 33 33 33 32 31 30 29 28 28 28 27 27 26 25 24 23 22 22 21 20 21 21 21 20 20 19 19 19 19 19 18 19 20 20
36 36 36 36 35 34 34 34 34 34 33 33 33 33 32 31 30 29 29 29 29 29 28 28 27 25 24 24 23 22 21 21 21 21 21 20 20 20 20 19 20 21 21 22
36 36 35 35 34 34 35 35 34 34 34 34 34 34 33 32 31 31 30 30 30 30 30 29 29 28 27 26 25 24 23 23 23 22 22 22 22 21 21 21 22 22 22 23
36 36 36 35 34 33 33 33 33 34 34 34 34 34 34 34 33 33 33 32 32 31 31 31 30 30 29 29 28 26 25 25 25 24 23 22 21 21 21 22 22 22 23 23
35 35 35 35 34 33 33 32 32 32 33 34 34 34 33 33 33 33 33 33 32 31 30 31 31 31 31 30 29 28 27 25 24 23 23 23 22 22 22 23 23 23 23 24
34 34 34 33 33 33 32 32 32 32 33 34 34 34 33 32 33 33 33 33 32 31 32 32 32 31 31 31 30 29 28 27 25 24 23 23 23 23 24 24 24 23 24 24
34 34 34 33 33 32 33 32 32 32 32 32 33 33 32 32 32 32 33 32 33 32 32 31 31 31 31 31 30 29 28 27 26 24 24 24 24 24 24 25 25 24 24 25
34 35 34 34 33 33 33 33 32 31 32 31 31 32 31 31 31 31 32 32 32 32 32 31 31 30 30 29 29 28 28 27 26 25 26 25 25 25 25 25 25 25 25 25
33 34 34 34 33 33 33 33 33 33 33 33 32 32 31 31 30 31 31 30 30 30 30 30 29 29 29 28 27 28 28 27 27 26 25 25 25 25 25 25 25 25 25 25
31 32 32 32 32 32 32 33 33 33 32 32 33 33 32 31 31 31 30 29 29 29 29 29 28 27 26 26 26 27 26 25 25 25 25 26 26 26 26 25 26 26 26 26
29 30 30 31 30 31 32 33 33 33 33 33 33 32 31 31 31 30 29 29 30 28 27 27 26 25 24 24 24 24 25 25 25 25 26 26 26 27 27 27 27 27 26 26
30 30 29 30 29 30 30 31 32 32 32 33 33 32 32 31 31 31 31 31 29 27 27 27 26 26 25 24 24 25 25 26 25 25 25 25 26 27 27 27 26 26 26 26
29 29 28 28 29 29 29 30 30 30 31 31 31 31 31 31 32 32 32 30 29 28 27 27 26 26 26 25 25 25 24 25 25 25 25 26 26 26 26 26 25 25 24 25
27 27 27 27 27 26 26 28 28 29 29 28 29 30 30 30 32 32 31 29 28 28 28 27 26 25 25 25 25 25 25 25 25 26 26 26 26 26 25 25 24 24 25 26
24 25 26 26 26 26 26 27 28 28 28 28 27 28 28 28 29 29 28 27 26 26 26 26 26 26 26 26 26 26 26 26 26 27 26 26 25 25 25 25 25 26 26 26
21 23 24 25 25 25 26 26 26 25 25 24 24 24 25 26 27 28 28 27 26 27 27 27 27 27 27 27 27 27 27 27 27 27 26 25 25 25 25 25 26 26 26 25
20 21 22 23 23 23 23 23 23 23 23 22 22 23 24 24 25 26 27 27 27 27 27 27 27 28 28 28 27 27 27 27 27 26 26 25 25 25 26 26 26 26 25 25
19 20 21 21 22 22 22 21 20 20 20 21 22 23 23 24 25 26 27 27 26 26 26 26 26 27 27 27 26 26 26 25 25 25 26 25 25 25 25 25 26 25 25 25
19 19 21 21 21 21 21 21 22 22 21 21 21 22 23 24 25 25 26 26 26 25 25 25 25 25 25 26 26 26 26 26 26 26 26 26 25 25 26 25 25 24 25 25
17 18 20 20 20 20 21 21 21 21 21 21 21 22 23 24 24 25 25 25 25 25 25 25 25 25 25 26 26 26 25 26 26 26 26 25 25 25 25 24 24 24 25 25
Wind_Direction
229 231 234 235 236 237 238 239 240 243 241 243 246 246 248 250 252 254 256 260 266 271 275 280 284 287 291 292 294 296 297 296 298 301 305 309 309 313 316 319 321 322 321 320
230 232 234 235 236 238 239 240 241 243 244 242 245 246 246 249 251 251 254 258 262 269 273 277 280 285 288 292 293 294 294 292 290 293 298 301 303 304 308 311 314 317 318 317
230 232 234 236 236 238 239 240 241 243 244 242 244 245 245 246 248 248 249 254 258 265 271 273 278 283 287 289 291 292 292 290 287 290 291 295 299 301 304 306 309 314 315 315
231 233 235 237 237 238 239 240 240 241 241 241 242 244 245 244 245 246 248 250 255 261 267 269 274 280 286 287 287 290 293 288 286 287 289 291 294 299 302 303 305 310 313 314
231 235 238 238 238 237 238 240 240 241 240 240 241 243 244 244 244 246 247 248 251 256 261 265 271 277 283 284 285 288 293 290 286 286 287 290 291 294 298 300 303 305 308 308
232 234 237 240 239 238 239 241 240 241 241 240 240 241 243 244 244 245 246 247 248 252 257 262 269 274 278 283 282 284 285 285 286 285 285 288 288 289 295 297 302 303 306 310
232 234 236 238 238 238 238 240 240 241 241 240 240 240 242 243 243 244 245 246 248 250 255 259 265 271 274 279 282 281 282 281 280 282 281 284 287 290 293 295 300 304 306 308
232 233 235 237 236 237 238 240 241 241 241 240 241 241 241 242 242 242 243 245 247 249 253 258 263 267 271 275 279 279 280 281 278 279 281 284 286 287 290 293 297 301 302 305
233 234 236 238 238 239 239 240 241 241 240 241 241 241 242 241 240 241 242 244 246 249 253 257 260 264 268 271 275 277 277 279 279 279 278 280 282 284 288 290 294 297 299 302
234 235 237 238 239 240 240 240 240 240 240 240 241 241 242 241 239 239 242 245 247 249 252 256 258 262 266 268 271 273 274 274 276 278 280 281 278 280 284 287 291 294 297 300
235 236 237 238 239 239 240 240 240 240 240 240 240 241 241 240 240 240 242 246 248 249 252 255 257 261 263 265 267 270 273 271 272 274 276 278 279 281 284 287 290 293 295 297
234 235 237 238 239 240 240 240 240 240 240 240 240 240 240 240 239 240 242 245 248 249 251 254 256 259 260 261 264 268 269 268 269 271 273 275 278 280 284 286 287 289 292 294
233 234 236 238 240 241 240 240 241 240 240 239 240 241 241 240 238 239 241 244 246 248 251 253 255 256 257 259 262 264 265 264 265 268 271 274 275 278 281 284 286 287 291 294
233 234 237 239 240 240 241 241 241 240 239 239 240 240 240 240 239 240 241 243 244 247 250 252 253 254 255 256 259 260 262 263 263 265 270 273 275 277 279 281 284 286 289 292
233 235 237 239 241 241 240 241 240 239 238 239 239 239 240 241 241 242 243 245 246 247 250 251 250 251 251 252 255 257 259 262 263 264 268 272 275 276 278 280 283 286 287 289
234 236 238 239 240 241 241 240 238 238 238 238 239 239 241 241 241 241 242 244 243 244 247 249 249 251 251 252 254 256 258 261 263 265 268 271 275 278 279 279 282 285 286 287
235 236 238 241 241 241 241 239 238 239 239 239 240 242 242 242 242 242 242 241 240 242 244 245 248 249 249 252 256 257 258 259 262 265 269 271 274 277 278 279 282 283 284 286
234 234 237 240 241 241 239 237 236 237 237 238 240 241 241 241 241 239 238 238 238 241 243 244 247 249 251 255 258 258 259 260 262 265 269 273 276 279 279 278 279 281 283 285
235 236 237 239 238 237 235 233 233 234 236 238 238 240 239 240 240 237 237 237 239 243 244 244 245 247 251 255 257 259 260 260 262 265 269 273 276 278 279 280 280 282 283 287
233 233 234 235 235 235 234 232 233 235 237 238 237 237 238 240 241 239 237 238 240 242 244 245 247 248 250 252 255 258 260 262 264 267 271 275 276 278 278 280 281 283 285 290
232 231 230 232 234 234 234 233 234 235 237 239 236 233 234 235 236 236 235 236 237 240 244 246 248 247 249 251 254 258 261 265 267 269 272 273 275 276 277 278 281 285 288 290
230 228 230 232 234 235 235 235 235 234 235 238 236 232 232 231 231 232 233 235 237 240 243 246 248 249 251 251 255 260 264 267 269 271 271 271 273 275 277 280 283 286 288 287
231 230 229 230 231 231 232 232 233 232 232 234 235 234 231 228 228 230 232 234 237 239 243 246 249 250 252 254 257 261 264 266 268 269 270 272 275 277 278 280 283 285 287 287
230 228 228 228 228 227 226 227 229 229 230 230 231 231 228 226 226 228 230 234 238 240 243 247 248 250 252 255 258 262 264 265 266 268 271 273 276 278 279 279 281 284 285 286
227 227 227 229 230 228 227 226 227 227 227 226 226 228 227 229 230 230 231 233 236 240 243 246 248 250 252 254 256 259 262 265 268 270 272 274 276 278 280 281 283 284 285 287
226 224 225 226 227 226 225 226 226 228 228 226 226 229 230 231 232 232 233 235 238 241 242 245 248 251 253 255 256 259 263 267 269 271 272 274 276 278 280 281 283 285 287 289
224 222 220 220 220 221 223 225 226 226 227 227 228 230 231 232 233 234 236 238 242 244 247 249 252 253 254 256 258 260 264 266 268 271 272 274 276 278 281 282 284 286 287 289